sat.trackr.live / text

‹ back to catalog

STARLINK-32635

NORAD 62155 · 2024-224S

PAYLOAD ACTIVE UNKNOWN

§ Identity

Operator
Country
US
Launch date
2024-11-30
Launch site
AFETR
Launch vehicle
Mass (kg)
RCS (m²)

Purposes: comms

External: N2YO · Heavens-Above · Gunter

§ Orbital elements

Epoch: 2026-09-21T01:44:42.371232Z

Period
94.27 min
Inclination
43.0011°
Eccentricity
0.0002541
Mean motion
15.27605817 rev/d
Perigee alt
481.2 km
Apogee alt
484.7 km
Semi-major
6,861.1 km
B*
3.6270e-4
RAAN
142.2630°
Arg perigee
258.1868°
Mean anomaly
101.8699°
Rev number
10,211

§ Raw data

STARLINK-326351 62155U 24224S   26264.07271263  .00009740  00000+0  36270-3 0  99912 62155  43.0011 142.2630 0002541 258.1868 101.8699 15.27605817102119

JSON: /api/v1/satellites/62155 · /tle

For live sub-satellite position, see the globe view (requires WebGL).

§ Visibility from observer

Set your observer location to see the next 7 days of passes ≥ 10°. The values pass through the URL so the page stays shareable.

No JS? Fill the form by hand. The geolocation button needs JavaScript.